"Pseudo-MPEC" for CEJLQ62

Created 2026 Apr 17 11:35:13 UT using Find_Orb

Click here for an explanation of pseudo-MPECs

 
 Astrometry: 
     CEJLQ62*1C2026 04 17.26708712 38 21.844+31 42 09.32   ~4H75 21.67GVNEOCPG96
     CEJLQ62 1C2026 04 17.27229012 38 21.239+31 43 05.59   ~4H75 21.43GVNEOCPG96
     CEJLQ62 1C2026 04 17.27756512 38 20.620+31 44 01.72   ~4H75 21.29GVNEOCPG96
     CEJLQ62 1C2026 04 17.28271912 38 19.993+31 44 57.19   ~4H75 21.57GVNEOCPG96
     CEJLQ62 1C2026 04 17.32343712 38 15.202+31 52 12.68   ~4H8Z 21.51GVNEOCPI52
     CEJLQ62 1C2026 04 17.32711612 38 14.770+31 52 51.82   ~4H8Z 21.56GVNEOCPV06
     CEJLQ62 1C2026 04 17.32788312 38 14.701+31 52 59.81   ~4H8Z 21.56GVNEOCPI52
     CEJLQ62 1C2026 04 17.32973612 38 14.474+31 53 19.82   ~4H8Z 21.17GVNEOCPV06
     CEJLQ62 1C2026 04 17.33232312 38 14.194+31 53 47.33   ~4H8Z 21.27GVNEOCPI52
     CEJLQ62 1C2026 04 17.33235612 38 14.190+31 53 47.76   ~4H8Z 21.04GVNEOCPV06
     CEJLQ62 1C2026 04 17.33497712 38 13.862+31 54 15.55   ~4H8Z 21.87GVNEOCPV06
     CEJLQ62 1C2026 04 17.33676412 38 13.672+31 54 34.42   ~4H8Z 21.65GVNEOCPI52

Station data:
(G96) Mt. Lemmon Survey  (N32.442729 W110.788720)  US/Arizona.  Observer E.
   J. Christensen. Measurers T. Beuden, V. F. Carvajal, D. Fay, J. B.
   Fazekas, D. C. Fuls, A. R. Gibbs, A. D. Grauer, H. Gröller, J. K. Hogan,
   R. A. Kowalski, S. M. Larson, G. J. Leonard, D. Rankin, R. L. Seaman, F.
   C. Shelly, K. W. Wierzchoś. 1.5-m reflector + 10K CCD.
(I52) Steward Observatory, Mt. Lemmon Station  (N32.442570 W110.788920)
   US/Arizona. Measurers T. Beuden, V. F. Carvajal, D. Fay, J. B. Fazekas, D.
   C. Fuls, A. R. Gibbs, A. D. Grauer, H. Gröller, J. K. Hogan, R. A.
   Kowalski, S. M. Larson, G. J. Leonard, D. Rankin, R. L. Seaman, F. C.
   Shelly, K. W. Wierzchoś. 1.0-m prime focus + CCD.
(V06) Catalina Sky Survey-Kuiper  (N32.416871 W110.732550)  US/Arizona.
   Measurers T. Beuden, V. F. Carvajal, D. Fay, J. B. Fazekas, D. C. Fuls, A.
   R. Gibbs, A. D. Grauer, H. Gröller, J. K. Hogan, R. A. Kowalski, S. M.
   Larson, G. J. Leonard, D. Rankin, R. L. Seaman, F. C. Shelly, K. W.
   Wierzchoś. 1.55-m reflector + CCD.

Orbital elements:  CEJLQ62
   Perihelion 2026 Jun 12.726999 +/- 71.3 TT = 17:26:52.7 (JD 2461204.226999)
Epoch 2026 Apr 17.0 TT = JDT 2461147.5   Earth MOID: 0.0763   Ma: 0.0941
M 344.422016935 +/- 60              (J2000 ecliptic)             AutoNEOCP
n   0.274613203 +/- 0.326           Peri.   96.785090 +/- 80
a   2.344166413 +/- 1.85            Node   187.806323 +/- 40
e   0.67877312 +/- 0.277            Incl.   18.942674 +/- 23
P   3.58908                H 23.58  G  0.15   U 12.0  SR
q 0.753009260 +/- 0.176    Q 3.935323566 +/- 21.2
From 12 observations 2026 Apr. 17 (1.7 hr); mean residual 0".17
Residuals in arcseconds: 
260417 G96  .01-  .34-    260417 I52  .22-  .29+    260417 I52  .17+  .00     
260417 G96  .08+  .22+    260417 V06  .20-  .11+    260417 V06  .21+  .07+    
260417 G96  .11+  .11-    260417 I52  .02+  .08-    260417 V06  .08-  .14-    
260417 G96  .14-  .20+    260417 V06  .07-  .12+    260417 I52  .12+  .34-    

Ephemerides (geocentric):
Date (UTC) HH   RA             Dec           delta  r     elong  mag " sig PA
---- --------  ------------   ------------  ------ ------ -----  --- --------
2026 04 17 12  12 37 58.819   +32 23 55.66  .18533 1.1416 134.6 21.7  123 109
2026 04 17 13  12 37 54.640   +32 31 26.32  .18515 1.1412 134.5 21.8  148 113
2026 04 17 14  12 37 50.446   +32 38 57.71  .18497 1.1408 134.3 21.8  177 117
2026 04 17 15  12 37 46.235   +32 46 29.84  .18480 1.1404 134.2 21.8  208 121
2026 04 17 16  12 37 42.008   +32 54 02.70  .18462 1.1399 134.0 21.8  243 125
2026 04 17 17  12 37 37.765   +33 01 36.30  .18444 1.1395 133.9 21.8  282 130
2026 04 17 18  12 37 33.506   +33 09 10.62  .18427 1.1391 133.7 21.8  325 134
2026 04 17 19  12 37 29.231   +33 16 45.66  .18410 1.1387 133.6 21.8  375 137
2026 04 17 20  12 37 24.939   +33 24 21.43  .18392 1.1382 133.4 21.8  430 141
2026 04 17 21  12 37 20.630   +33 31 57.92  .18375 1.1378 133.3 21.8  493 144
2026 04 17 22  12 37 16.305   +33 39 35.12  .18358 1.1374 133.1 21.8  562 146
2026 04 17 23  12 37 11.963   +33 47 13.04  .18341 1.1369 133.0 21.8  639 149
2026 04 18 00  12 37 07.604   +33 54 51.66  .18325 1.1365 132.8 21.8  725 151
2026 04 18 01  12 37 03.228   +34 02 31.00  .18308 1.1361 132.7 21.8  820 152
2026 04 18 02  12 36 58.834   +34 10 11.04  .18291 1.1357 132.5 21.8  926 154
2026 04 18 03  12 36 54.424   +34 17 51.78  .18275 1.1352 132.4 21.8 1042 155
2026 04 18 04  12 36 49.996   +34 25 33.22  .18258 1.1348 132.2 21.8 1171 157
2026 04 18 05  12 36 45.551   +34 33 15.36  .18242 1.1344 132.1 21.8 1314 158
2026 04 18 06  12 36 41.088   +34 40 58.19  .18225 1.1340 131.9 21.8 1473 159
2026 04 18 07  12 36 36.608   +34 48 41.70  .18209 1.1335 131.8 21.8 1649 160
2026 04 18 08  12 36 32.109   +34 56 25.91  .18193 1.1331 131.6 21.8 1844 160
2026 04 18 09  12 36 27.593   +35 04 10.80  .18177 1.1327 131.5 21.8 2062 161
2026 04 18 10  12 36 23.059   +35 11 56.37  .18161 1.1323 131.3 21.8 2306 162
2026 04 18 11  12 36 18.506   +35 19 42.61  .18146 1.1318 131.2 21.8 2580 162
2026 04 18 12  12 36 13.936   +35 27 29.53  .18130 1.1314 131.0 21.8 2889 163
2026 04 18 13  12 36 09.346   +35 35 17.12  .18114 1.1310 130.9 21.8 3238 163
2026 04 18 14  12 36 04.739   +35 43 05.37  .18099 1.1305 130.7 21.8 3636 164
2026 04 18 15  12 36 00.112   +35 50 54.29  .18084 1.1301 130.6 21.8 4092 164
2026 04 18 16  12 35 55.467   +35 58 43.87  .18068 1.1297 130.4 21.8 4618 164
2026 04 18 17  12 35 50.803   +36 06 34.10  .18053 1.1293 130.3 21.8 5229 164
2026 04 18 18  12 35 46.119   +36 14 24.99  .18038 1.1288 130.1 21.8 5946 164
2026 04 18 19  12 35 41.417   +36 22 16.52  .18023 1.1284 130.0 21.8 6795 164
2026 04 18 20  12 35 36.695   +36 30 08.71  .18008 1.1280 129.8 21.8 7811 164
2026 04 18 21  12 35 31.954   +36 38 01.53  .17993 1.1276 129.6 21.8 9045 163
2026 04 18 22  12 35 27.193   +36 45 54.99  .17979 1.1271 129.5 21.8 176' 162
2026 04 18 23  12 35 22.412   +36 53 49.09  .17964 1.1267 129.3 21.8 208' 161
2026 04 19 00  12 35 17.612   +37 01 43.82  .17950 1.1263 129.2 21.8 251' 157
2026 04 19 01  12 35 12.791   +37 09 39.18  .17935 1.1259 129.0 21.8 314' 150
2026 04 19 02  12 35 07.950   +37 17 35.15  .17921 1.1254 128.9 21.8 457' 133
2026 04 19 03  12 35 03.089   +37 25 31.75  .17907 1.1250 128.7 21.8 751' 113
2026 04 19 04  12 34 58.208   +37 33 28.97  .17893 1.1246 128.6 21.8 871' 105
2026 04 19 05  12 34 53.305   +37 41 26.80  .17879 1.1242 128.4 21.8 904'  99
2026 04 19 06  12 34 48.382   +37 49 25.23  .17865 1.1237 128.3 21.8 918'  94
2026 04 19 07  12 34 43.439   +37 57 24.27  .17851 1.1233 128.1 21.8 929'  90
2026 04 19 08  12 34 38.474   +38 05 23.91  .17837 1.1229 128.0 21.8 939'  86
2026 04 19 09  12 34 33.488   +38 13 24.15  .17824 1.1225 127.8 21.8 949'  83
2026 04 19 10  12 34 28.480   +38 21 24.97  .17810 1.1220 127.6 21.8 959'  80
2026 04 19 11  12 34 23.451   +38 29 26.39  .17797 1.1216 127.5 21.8 968'  78